Snowfall_Accumulation
0.0 0.0 0.0 0.0 0.0 0.0 0.0 0.0 0.0 0.1 0.0 0.0 0.0 0.0 0.0 0.0 0.0 0.0 0.0 0.0 0.0 0.0 0.0 0.0 0.0 0.0 0.0
0.6 0.7 0.5 0.0 0.0 0.0 0.0 0.0 0.0 0.0 0.0 0.0 0.0 0.0 0.0 0.0 0.3 0.2 0.3 0.0 0.0 0.0 0.0 0.0 0.0 0.0 0.0
1.1 0.2 0.7 0.0 2.1 0.3 0.0 0.0 0.0 0.0 0.0 0.0 0.0 0.0 0.0 0.0 0.1 0.1 0.1 0.3 0.1 0.0 0.0 0.0 0.0 0.0 0.0
0.9 0.7 1.5 0.9 0.7 1.2 0.6 0.4 1.6 0.0 0.0 0.0 0.0 0.0 0.0 0.0 0.0 0.0 0.0 0.0 0.0 0.0 0.0 0.0 0.1 0.0 0.0
2.9 1.7 0.7 0.4 0.4 0.2 1.8 1.1 4.2 1.0 1.1 2.6 1.7 0.7 0.0 0.0 0.0 0.0 0.0 0.0 0.1 0.4 0.4 0.6 0.4 0.4 0.1
3.4 1.4 0.3 0.2 0.3 0.6 3.4 6.2 9.5 0.0 7.8 4.0 1.4 2.0 0.3 0.0 0.0 0.0 0.1 0.1 0.1 0.2 0.9 0.4 0.7 0.8 0.7
1.9 0.4 0.4 0.3 1.7 2.6 3.7 6.6 8.1 5.8 8.6 6.4 1.9 2.9 0.0 0.0 0.0 0.0 0.0 0.1 0.1 0.4 0.8 0.9 0.7 0.8 0.5
0.2 0.5 1.3 0.6 1.8 3.1 3.0 3.7 2.4 3.5 10.2 14.2 6.3 2.8 0.6 0.1 0.4 0.7 0.0 0.1 0.1 0.4 0.7 1.4 1.1 0.3 0.4
0.3 0.2 0.2 0.1 0.1 1.4 6.8 8.5 7.8 5.7 9.5 12.1 6.8 7.8 1.5 0.5 0.2 0.5 0.0 0.1 0.1 0.2 0.4 0.8 0.5 0.8 0.4
0.1 0.0 0.0 0.0 0.0 0.0 3.1 12.5 12.1 9.4 4.3 12.1 8.7 10.1 10.9 0.2 0.4 0.5 0.7 0.4 0.4 0.0 0.2 0.3 0.5 0.6 1.2
0.8 0.2 0.0 0.0 1.2 0.8 0.3 5.5 13.5 12.6 3.4 14.8 16.9 10.7 17.1 9.1 0.5 0.5 0.6 0.7 0.6 0.4 0.2 0.2 1.2 2.2 5.2
2.2 1.7 1.4 0.6 0.3 0.9 1.0 0.2 0.6 6.9 5.4 7.8 25.1 16.2 24.1 18.5 2.3 1.3 0.6 0.2 1.1 1.2 0.7 1.3 1.6 2.3 2.3
1.6 1.0 0.5 1.2 1.4 1.9 1.6 2.2 2.1 2.6 4.1 6.3 13.6 17.9 25.3 26.0 9.8 2.0 2.6 0.6 0.1 1.7 2.4 3.1 3.0 3.4 4.1
2.5 2.3 2.5 1.5 2.0 1.4 2.8 3.7 6.9 6.6 3.7 5.6 8.2 16.9 23.8 14.2 17.3 7.0 1.9 5.7 1.3 1.6 3.8 3.0 2.5 3.1 3.6
3.6 4.8 3.5 3.5 2.9 2.4 3.6 4.8 9.0 6.2 6.9 10.0 9.9 12.6 16.5 20.1 13.1 12.0 6.0 5.9 5.3 6.6 6.4 4.8 1.2 2.8 3.3
5.6 5.4 8.2 6.7 6.1 7.4 6.5 8.0 11.8 10.8 11.7 12.7 11.6 16.3 18.5 22.5 18.4 14.3 11.2 9.2 9.5 10.5 7.3 10.3 6.9 3.7 3.9
10.9 10.1 10.9 10.9 10.7 8.5 8.6 10.1 12.3 12.8 14.9 14.2 17.7 20.5 26.4 23.2 21.8 19.7 26.8 15.6 14.1 15.3 8.7 8.8 9.1 5.8 3.8